Retour au catalogue

COSMOS 2230

ActifNavigationPO
NORAD 22307·PAYLOAD·🇷🇺 Russia

Lancé Jan 12, 1993 depuis Plesetsk Cosmodrome

Loading…

Prochains Passages (prochaines 24 heures)

TLE

FraisSource: Space-Track

Époque: Sep 14, 2026, 18:15 UTC

1 22307U 93001A   26257.76057994  .00000071  00000-0  60211-4 0  9998
2 22307  82.9402 222.2459 0023005 276.3360 143.3468 13.73899546679381

Suivez COSMOS 2230 en temps réel avec AllMySat

Download on the App Store